Theta_e
306 305 301 303 307 307 307 307 307 308 308 308 309 311 313 314 314 314 313 314 314 313 313 313 312 313 313 312 313 313 312 312 311 307 307 307 308 309 308 308 308 308 307
305 305 302 303 305 307 307 307 308 308 308 308 309 312 313 313 313 313 314 314 314 313 313 313 313 312 312 312 312 312 311 311 311 309 307 307 307 307 307 307 306 306 306
305 305 303 302 304 307 308 308 309 309 309 308 309 311 313 314 314 313 314 314 314 313 313 313 313 313 312 312 311 311 312 310 310 310 309 307 307 305 306 305 305 305 305
305 304 304 302 304 307 308 309 310 310 310 309 310 311 314 314 314 313 313 313 313 313 313 313 313 313 312 312 312 311 311 312 311 310 310 308 307 304 305 306 304 303 304
305 304 304 301 303 306 308 309 310 311 310 310 309 311 314 314 315 314 313 313 314 313 313 313 313 312 312 312 312 311 312 312 312 311 310 308 306 305 305 304 304 303 302
305 304 303 302 302 304 307 308 309 310 310 310 309 312 316 314 314 314 314 313 313 313 313 313 311 312 311 311 312 312 312 313 313 313 311 310 308 307 305 305 305 304 302
304 304 303 302 302 304 306 308 309 310 309 309 309 312 313 314 314 314 314 314 312 312 311 312 312 312 312 312 312 312 314 314 313 313 313 311 310 309 308 306 304 303 301
302 303 303 303 301 304 306 307 311 308 309 310 310 313 313 313 312 314 314 312 312 312 312 313 312 312 312 312 312 314 314 314 313 312 311 311 309 307 306 305 303 301 299
302 302 302 302 301 303 307 308 308 308 309 310 312 313 315 314 312 313 313 312 312 313 314 314 314 314 313 313 314 315 315 315 313 310 309 308 307 305 304 303 302 300 299
301 301 302 302 301 302 307 310 308 309 310 311 312 314 315 315 314 313 313 312 312 312 313 313 314 315 315 315 315 315 315 313 310 308 307 307 306 305 304 303 302 301 301
302 301 301 302 303 302 306 311 309 309 311 313 314 316 315 314 314 314 314 314 313 313 313 314 314 315 315 316 315 315 313 311 309 307 306 305 304 303 302 302 302 301 301
304 301 301 301 301 301 306 310 310 309 310 313 314 315 315 313 314 314 314 315 315 315 315 315 315 315 315 315 315 314 312 310 308 307 305 304 302 302 301 301 300 300 299
304 302 300 300 300 300 304 309 309 310 310 312 312 312 314 313 314 314 314 314 315 315 315 315 316 315 315 314 314 313 312 310 308 306 304 302 301 300 300 299 298 298 296
308 303 301 301 300 300 301 306 310 309 310 310 311 311 313 314 315 314 314 313 314 315 315 315 315 315 315 314 313 312 311 310 307 305 303 301 300 299 298 297 297 298 297
306 307 303 301 300 300 300 302 308 310 310 310 309 310 311 313 315 315 316 316 316 316 315 315 315 314 314 312 312 312 311 308 305 302 301 301 300 298 297 297 298 299 295
303 306 306 302 301 300 299 300 304 307 310 309 309 309 311 311 312 312 313 314 315 315 315 314 315 314 313 313 312 311 310 306 304 302 301 300 297 298 300 301 299 295 291
297 301 305 306 304 301 301 300 300 304 307 309 309 310 310 310 312 312 312 313 313 312 312 314 314 314 314 313 312 312 311 305 303 301 300 297 297 299 301 300 295 290 289
294 296 299 304 305 304 301 300 300 301 304 308 308 308 309 310 311 312 312 312 311 311 311 312 313 313 314 313 312 312 308 303 303 301 300 295 297 300 300 298 291 289 288
292 293 295 297 302 305 305 302 300 301 302 305 307 307 307 307 307 308 308 310 312 313 313 313 313 313 312 312 312 309 304 304 303 302 300 295 299 300 299 297 290 288 287
292 292 292 294 297 299 304 304 302 300 300 302 305 305 305 305 305 306 307 309 312 312 312 313 312 312 312 312 309 307 304 303 302 301 297 296 299 299 299 297 290 288 287
292 292 292 292 293 295 297 301 304 303 301 300 300 302 302 302 303 304 306 307 309 311 311 311 311 312 312 311 307 304 304 303 302 300 296 297 299 299 298 295 290 287 286
291 292 292 292 292 293 294 296 297 302 304 302 302 301 300 300 301 303 304 305 307 308 310 309 309 309 310 310 307 305 305 303 302 297 297 300 299 298 297 295 290 287 286
290 291 291 292 292 292 292 293 295 296 297 302 303 302 301 301 300 300 303 305 305 306 307 309 309 308 308 307 305 306 306 304 299 298 301 301 300 298 297 295 291 288 286
290 290 291 291 291 292 292 292 292 294 295 296 298 302 303 302 301 300 301 302 304 305 306 306 308 308 308 305 304 303 303 300 299 301 301 300 299 298 297 294 290 287 286
288 289 289 289 290 291 291 292 292 292 292 293 295 297 301 301 301 301 300 300 302 304 304 305 306 306 307 306 304 303 302 299 300 301 300 299 298 297 296 293 289 286 285
286 286 285 285 286 288 289 290 291 292 293 292 292 294 295 300 300 301 300 299 299 301 303 304 305 306 306 306 304 302 302 298 300 300 299 298 297 296 294 292 288 286 285
Wind_Speed
6 4 4 6 7 5 4 4 4 4 3 2 2 1 3 4 6 7 10 11 10 12 13 10 17 27 32 34 28 15 15 30 30 25 25 21 19 16 15 12 9 6 5
7 6 5 6 8 8 7 5 5 4 3 4 3 3 2 6 7 9 11 12 10 14 16 17 25 30 29 26 23 13 14 22 26 27 25 22 19 15 14 12 11 9 5
11 8 7 6 8 9 8 6 6 6 5 5 5 6 4 8 10 10 13 15 11 12 17 19 22 23 24 21 19 13 12 18 19 24 27 23 20 17 15 14 12 9 7
14 10 8 7 7 10 9 7 6 7 6 6 7 8 7 9 9 12 15 15 11 10 21 23 18 19 21 17 16 17 16 14 18 23 22 23 22 21 16 16 15 10 6
16 12 9 8 8 11 10 8 7 8 8 8 9 9 10 9 8 13 14 14 12 17 24 14 16 16 17 16 17 19 15 14 18 20 24 27 25 23 20 18 14 12 9
16 13 12 10 9 11 11 10 9 8 9 11 11 11 10 9 9 12 15 14 13 17 22 17 16 21 21 18 16 13 9 8 13 19 23 25 25 23 21 19 15 13 10
15 13 13 11 9 11 12 11 9 8 10 11 13 12 10 12 12 13 14 13 15 18 19 22 24 21 20 18 17 12 9 9 10 10 16 23 23 20 18 18 15 12 9
15 13 12 12 10 10 12 11 11 10 11 12 16 15 12 14 15 16 16 19 20 21 20 19 19 19 18 18 15 12 11 12 11 12 12 14 16 17 16 14 15 14 12
14 13 12 12 11 11 12 9 10 11 11 15 18 16 14 16 16 19 19 22 22 19 15 17 14 14 16 16 14 13 12 14 15 15 17 17 17 19 19 19 21 20 18
12 12 12 12 11 12 11 9 10 12 13 17 15 15 15 16 18 17 21 24 23 21 20 18 16 15 15 14 13 13 14 15 15 16 16 18 19 20 19 19 14 16 15
7 12 13 13 12 12 12 11 12 13 15 17 15 13 17 15 20 18 20 21 21 23 21 19 18 17 16 14 14 14 13 14 14 14 15 17 18 19 19 19 19 15 14
3 7 12 14 12 12 13 13 14 16 17 18 17 15 16 18 20 20 20 21 18 16 20 19 19 17 15 16 16 18 17 16 16 16 16 17 18 19 19 18 17 17 15
14 4 10 16 15 13 15 15 16 19 19 19 19 18 17 19 21 22 21 21 21 18 15 15 18 19 18 20 20 22 20 19 17 16 16 17 17 17 16 16 16 17 17
17 12 6 12 15 16 16 17 17 19 21 21 21 20 18 19 22 23 23 24 23 24 23 23 22 22 24 23 25 25 22 19 17 15 15 16 17 18 17 17 18 18 17
17 15 10 7 13 17 18 18 19 19 19 23 24 22 21 22 23 24 26 29 28 27 27 26 27 27 29 29 29 27 26 24 21 20 19 19 19 19 19 20 19 20 20
15 14 14 10 9 14 18 20 22 20 22 23 23 24 25 25 23 21 21 26 32 33 31 32 31 31 29 30 31 30 27 25 24 22 22 20 20 21 22 22 21 20 21
16 15 14 13 10 10 15 19 22 22 23 25 24 23 24 25 24 24 22 22 27 29 32 33 31 32 31 31 33 30 28 25 23 23 22 21 22 22 23 24 23 23 25
18 16 15 14 13 11 11 14 18 21 22 24 19 18 25 26 26 27 25 26 26 29 28 30 33 34 36 37 34 30 27 26 25 24 23 24 23 24 25 25 26 28 29
22 18 17 16 14 14 13 12 16 20 24 27 29 25 21 19 23 25 25 26 28 29 29 27 32 33 35 33 29 27 27 26 25 26 26 26 26 26 27 27 27 30 30
24 22 20 19 17 16 16 15 14 16 21 25 29 30 26 22 21 23 27 29 32 31 32 31 29 32 32 32 28 29 29 28 28 28 27 28 28 28 28 28 29 32 32
22 22 21 22 21 19 19 18 16 17 17 20 25 26 23 23 28 24 24 29 31 33 35 35 35 35 34 35 33 32 30 30 30 29 28 29 29 30 30 30 30 32 32
23 23 23 23 23 22 22 22 22 20 19 20 20 21 24 27 25 30 27 26 31 35 36 35 38 38 38 37 36 34 32 32 31 30 30 30 30 32 32 32 31 32 35
25 24 24 25 25 25 25 25 25 25 24 22 21 23 23 25 26 27 31 28 29 32 36 39 40 41 41 39 37 32 31 29 28 29 30 30 32 33 34 34 33 34 37
25 25 26 27 27 27 28 28 28 29 28 28 26 24 24 26 27 28 29 32 32 30 36 40 42 41 41 40 39 36 33 29 29 28 29 30 32 33 34 34 33 34 37
24 23 24 26 28 29 30 30 30 31 33 32 31 31 28 24 26 27 28 30 36 37 34 37 42 42 40 42 41 37 36 32 30 30 30 31 31 31 31 32 33 35 37
25 27 29 28 27 27 30 32 33 32 33 35 36 34 32 30 27 26 26 27 31 38 37 36 41 43 41 40 41 40 37 35 32 31 31 31 31 33 32 30 31 34 37
Wind_Direction
237 251 259 235 219 211 208 193 201 237 233 171 131 127 127 116 127 130 132 124 133 144 141 143 159 171 164 162 162 153 170 174 152 145 146 150 153 162 155 160 157 162 142
238 244 250 244 223 211 213 209 214 242 226 196 164 152 127 121 154 147 152 132 138 150 141 153 167 165 162 170 167 182 166 189 184 162 156 159 161 166 168 174 160 151 161
243 242 243 244 226 213 221 218 231 239 235 205 192 160 163 136 137 137 135 143 141 147 153 152 167 176 170 175 176 175 167 171 187 180 169 170 167 172 173 168 166 170 156
246 243 243 245 228 216 219 222 230 245 233 201 198 171 166 158 148 156 148 138 146 150 149 152 160 168 177 178 182 168 163 152 164 174 179 179 179 176 184 180 169 160 146
245 242 239 240 234 219 217 225 234 241 234 208 200 187 176 168 168 172 166 160 161 161 164 157 160 165 179 159 159 156 167 172 181 184 189 186 184 182 185 181 175 162 143
240 236 234 234 239 226 218 227 236 241 223 210 199 183 171 167 172 176 182 170 166 169 178 169 157 157 154 154 166 172 178 200 198 199 202 198 193 191 188 187 186 174 170
238 231 233 228 234 231 221 227 237 229 220 206 189 182 172 178 165 166 179 180 163 157 161 163 155 156 162 172 177 185 199 208 207 218 200 201 197 195 192 189 190 194 202
231 232 228 234 225 231 225 229 228 235 206 197 180 176 181 178 167 161 166 165 162 158 160 164 165 167 176 185 189 203 199 183 175 169 183 187 189 190 190 196 193 193 189
221 226 223 228 235 227 229 235 232 206 199 188 177 179 186 183 172 164 171 170 173 175 175 173 178 187 187 192 202 203 195 177 172 164 161 169 181 188 192 192 196 198 190
216 215 219 219 226 226 231 225 217 197 187 178 178 187 188 192 181 178 179 184 186 195 194 193 197 198 199 196 199 198 191 182 177 171 172 177 181 184 192 201 215 207 205
251 224 203 216 227 221 215 223 213 201 189 179 189 185 190 200 194 191 183 191 199 201 203 206 197 193 194 195 194 188 190 189 184 183 182 183 186 191 193 195 201 215 222
334 234 227 204 210 228 217 215 215 212 201 196 197 199 196 199 198 202 200 196 205 209 206 204 199 199 201 199 194 188 193 197 195 191 190 192 193 195 198 201 203 206 211
13 302 227 210 207 214 224 219 216 219 215 209 209 209 206 205 205 208 208 205 202 212 212 213 216 216 211 202 199 193 196 199 203 199 198 200 199 201 202 203 202 205 211
15 1 276 233 224 212 218 226 222 223 228 229 219 220 221 219 213 217 218 218 219 219 224 228 228 222 219 213 199 196 200 202 212 212 209 209 206 205 205 207 208 207 205
5 3 354 279 245 234 223 221 232 236 233 240 239 236 236 227 227 226 229 222 223 223 223 223 224 222 222 213 204 199 200 200 208 211 209 211 209 207 204 204 203 205 200
347 350 352 346 276 252 243 233 224 229 243 239 239 242 239 236 232 245 244 232 230 228 230 228 221 222 216 210 206 206 203 206 211 214 211 213 212 210 208 203 201 201 198
330 333 336 338 329 277 255 250 243 229 234 248 242 244 248 238 240 247 250 244 242 228 226 229 225 221 214 212 208 211 210 212 215 218 218 216 212 211 209 205 202 196 191
307 312 318 317 319 312 293 262 249 245 239 244 252 255 252 245 248 247 243 234 236 235 227 227 225 222 217 212 211 211 212 215 218 219 221 218 217 216 211 207 205 197 192
291 292 295 301 303 305 302 285 263 251 241 239 251 256 266 271 264 252 236 238 232 232 228 227 224 219 216 212 213 215 217 223 224 224 223 220 219 219 215 212 208 201 198
284 284 281 282 286 289 292 291 280 265 255 247 245 251 256 267 273 264 242 226 223 226 233 227 223 218 209 210 211 218 221 226 227 227 225 222 222 221 219 215 211 207 201
288 285 281 276 274 277 282 280 282 280 271 261 258 260 263 262 261 268 258 245 226 225 229 225 219 214 214 213 217 221 225 229 229 230 226 224 226 222 217 215 214 210 205
280 282 283 281 276 270 270 275 279 276 276 273 269 268 262 262 253 250 256 252 247 239 234 235 231 222 220 217 220 222 226 229 229 226 225 227 227 222 218 215 214 212 208
279 277 277 277 277 275 268 264 268 273 276 273 274 273 270 267 263 248 247 253 251 245 239 235 236 234 228 222 223 227 234 236 233 230 231 230 226 220 217 216 215 211 210
277 275 273 272 272 272 272 269 265 265 266 270 270 267 272 270 269 262 255 246 249 254 244 237 237 236 236 229 231 229 229 231 230 232 232 230 224 218 217 216 215 213 211
273 273 274 274 272 271 270 269 268 265 265 265 265 267 266 273 275 269 257 252 243 243 250 243 237 237 237 233 231 234 236 228 229 230 226 221 219 219 218 217 216 212 210
285 277 271 267 268 272 273 271 269 266 264 263 264 264 265 263 271 277 266 255 249 241 243 245 241 236 236 237 234 233 233 230 225 227 225 219 215 212 212 215 217 214 211